• In Belarus
  • List of Countries
  • For 7 days
  • Water Temperature
  • Satellite Maps
  • Weather Map
  • Weather Widgets
  • user-avatar
    Login

    Hourly Weather Rivas

    Today, 16 July, Monday

    Time Temperature Precipitation Wind Pressure Humidity
    00:00 +28°C° 0 mm 8 mps 752 mmHg 79%
    01:00 +28°C° 0.3 mm 8 mps 752 mmHg 79%
    02:00 +28°C° 0.3 mm 8 mps 752 mmHg 80%
    03:00 +28°C° 0.3 mm 9 mps 751 mmHg 80%
    04:00 +28°C° 0.2 mm 8 mps 751 mmHg 80%
    05:00 +28°C° 0.2 mm 8 mps 751 mmHg 80%
    06:00 +28°C° 0.2 mm 8 mps 751 mmHg 81%
    07:00 +28°C° 0.2 mm 8 mps 752 mmHg 78%
    08:00 +29°C° 0.2 mm 8 mps 752 mmHg 76%
    09:00 +31°C° 0.2 mm 9 mps 753 mmHg 73%
    10:00 +32°C° 0.2 mm 8 mps 753 mmHg 71%
    11:00 +32°C° 0.2 mm 8 mps 752 mmHg 69%
    12:00 +33°C° 0.2 mm 8 mps 752 mmHg 66%
    13:00 +33°C° 0.4 mm 8 mps 752 mmHg 68%
    14:00 +32°C° 0.4 mm 8 mps 751 mmHg 69%
    15:00 +32°C° 0.4 mm 8 mps 751 mmHg 70%
    16:00 +31°C° 0.2 mm 8 mps 751 mmHg 72%
    17:00 +31°C° 0.2 mm 8 mps 751 mmHg 74%
    18:00 +29°C° 0.2 mm 8 mps 751 mmHg 76%
    19:00 +29°C° 0.1 mm 8 mps 752 mmHg 76%
    20:00 +29°C° 0.1 mm 8 mps 752 mmHg 77%
    21:00 +29°C° 0.1 mm 8 mps 753 mmHg 78%
    22:00 +28°C° 0.1 mm 8 mps 753 mmHg 79%
    23:00 +28°C° 0.1 mm 8 mps 753 mmHg 81%

    Tomorrow, 17 July, Tuesday

    Time Temperature Precipitation Wind Pressure Humidity
    00:00 +28°C° 0.1 mm 8 mps 753 mmHg 82%
    01:00 +28°C° 0.3 mm 8 mps 752 mmHg 84%
    02:00 +27°C° 0.3 mm 8 mps 752 mmHg 85%
    03:00 +27°C° 0.3 mm 7 mps 752 mmHg 87%
    04:00 +27°C° 0.3 mm 7 mps 752 mmHg 87%
    05:00 +27°C° 0.3 mm 7 mps 752 mmHg 87%
    06:00 +27°C° 0.3 mm 7 mps 752 mmHg 88%
    07:00 +28°C° 0.4 mm 7 mps 753 mmHg 83%
    08:00 +29°C° 0.4 mm 8 mps 753 mmHg 79%
    09:00 +31°C° 0.4 mm 8 mps 753 mmHg 75%
    10:00 +32°C° 0.2 mm 8 mps 753 mmHg 70%
    11:00 +33°C° 0.2 mm 8 mps 753 mmHg 66%
    12:00 +34°C° 0.2 mm 7 mps 753 mmHg 61%
    13:00 +34°C° 0.6 mm 8 mps 752 mmHg 62%
    14:00 +34°C° 0.6 mm 8 mps 752 mmHg 62%
    15:00 +34°C° 0.6 mm 8 mps 751 mmHg 63%
    16:00 +32°C° 0.7 mm 7 mps 751 mmHg 67%
    17:00 +30°C° 0.7 mm 7 mps 752 mmHg 72%
    18:00 +29°C° 0.7 mm 7 mps 752 mmHg 77%
    19:00 +29°C° 0.5 mm 7 mps 752 mmHg 78%
    20:00 +28°C° 0.5 mm 7 mps 753 mmHg 80%
    21:00 +28°C° 0.5 mm 7 mps 753 mmHg 81%
    22:00 +28°C° 0.1 mm 7 mps 753 mmHg 81%
    23:00 +28°C° 0.1 mm 7 mps 753 mmHg 82%

    Day after tomorrow, 18 July, Wednesday

    Time Temperature Precipitation Wind Pressure Humidity
    00:00 +28°C° 0.1 mm 7 mps 753 mmHg 82%
    01:00 +28°C° 0 mm 7 mps 752 mmHg 82%
    02:00 +28°C° 0 mm 7 mps 752 mmHg 82%
    03:00 +28°C° 0 mm 7 mps 751 mmHg 81%
    04:00 +28°C° 0.1 mm 7 mps 752 mmHg 82%
    05:00 +28°C° 0.1 mm 7 mps 752 mmHg 83%
    06:00 +28°C° 0.1 mm 7 mps 752 mmHg 83%
    07:00 +28°C° 0.6 mm 7 mps 752 mmHg 83%
    08:00 +28°C° 0.6 mm 8 mps 753 mmHg 82%
    09:00 +29°C° 0.6 mm 8 mps 753 mmHg 82%
    10:00 +29°C° 0.7 mm 8 mps 753 mmHg 81%
    11:00 +29°C° 0.7 mm 8 mps 753 mmHg 81%
    12:00 +29°C° 0.7 mm 8 mps 752 mmHg 81%
    13:00 +29°C° 0.6 mm 8 mps 752 mmHg 81%
    14:00 +29°C° 0.6 mm 8 mps 751 mmHg 81%
    15:00 +29°C° 0.6 mm 8 mps 751 mmHg 81%
    16:00 +29°C° 0.6 mm 8 mps 751 mmHg 83%
    17:00 +28°C° 0.6 mm 8 mps 751 mmHg 85%
    18:00 +27°C° 0.6 mm 7 mps 751 mmHg 88%
    19:00 +27°C° 0.4 mm 7 mps 751 mmHg 88%
    20:00 +27°C° 0.4 mm 7 mps 752 mmHg 88%
    21:00 +27°C° 0.4 mm 7 mps 752 mmHg 88%
    22:00 +27°C° 0.2 mm 7 mps 752 mmHg 87%
    23:00 +27°C° 0.2 mm 7 mps 752 mmHg 87%

    19 July, Thursday

    Time Temperature Precipitation Wind Pressure Humidity
    00:00 +27°C° 0.2 mm 6 mps 752 mmHg 87%
    01:00 +27°C° 0.4 mm 6 mps 751 mmHg 87%
    02:00 +27°C° 0.4 mm 6 mps 751 mmHg 88%
    03:00 +27°C° 0.4 mm 6 mps 751 mmHg 88%
    04:00 +27°C° 0.5 mm 6 mps 751 mmHg 88%
    05:00 +27°C° 0.5 mm 7 mps 751 mmHg 88%
    06:00 +27°C° 0.5 mm 7 mps 751 mmHg 87%
    07:00 +28°C° 0.7 mm 7 mps 752 mmHg 83%
    08:00 +29°C° 0.7 mm 8 mps 752 mmHg 78%
    09:00 +31°C° 0.7 mm 8 mps 752 mmHg 73%
    10:00 +32°C° 0.4 mm 8 mps 752 mmHg 70%
    11:00 +33°C° 0.4 mm 8 mps 752 mmHg 67%
    12:00 +34°C° 0.4 mm 8 mps 752 mmHg 63%
    13:00 +34°C° 0.4 mm 8 mps 751 mmHg 63%
    14:00 +33°C° 0.4 mm 8 mps 751 mmHg 63%
    15:00 +33°C° 0.4 mm 8 mps 750 mmHg 63%
    16:00 +32°C° 0.1 mm 8 mps 750 mmHg 67%
    17:00 +30°C° 0.1 mm 7 mps 751 mmHg 71%
    18:00 +29°C° 0.1 mm 7 mps 751 mmHg 75%
    19:00 +29°C° 0.1 mm 7 mps 751 mmHg 76%
    20:00 +29°C° 0.1 mm 8 mps 752 mmHg 77%
    21:00 +28°C° 0.1 mm 8 mps 752 mmHg 78%
    22:00 +28°C° 0.1 mm 8 mps 752 mmHg 78%
    23:00 +28°C° 0.1 mm 8 mps 752 mmHg 78%

    20 July, Friday

    Time Temperature Precipitation Wind Pressure Humidity
    00:00 +28°C° 0.1 mm 7 mps 752 mmHg 79%
    01:00 +27°C° 0.1 mm 7 mps 752 mmHg 79%
    02:00 +27°C° 0.1 mm 7 mps 751 mmHg 80%
    03:00 +27°C° 0.1 mm 7 mps 751 mmHg 80%
    04:00 +27°C° 0.3 mm 7 mps 751 mmHg 80%
    05:00 +27°C° 0.3 mm 7 mps 751 mmHg 80%
    06:00 +27°C° 0.3 mm 7 mps 751 mmHg 81%
    07:00 +28°C° 0.2 mm 8 mps 752 mmHg 77%
    08:00 +29°C° 0.2 mm 8 mps 752 mmHg 73%
    09:00 +31°C° 0.2 mm 8 mps 753 mmHg 69%
    10:00 +32°C° 0.1 mm 8 mps 752 mmHg 67%
    11:00 +33°C° 0.1 mm 8 mps 752 mmHg 64%
    12:00 +34°C° 0.1 mm 8 mps 751 mmHg 61%
    13:00 +33°C° 0.1 mm 7 mps 751 mmHg 62%
    14:00 +33°C° 0.1 mm 7 mps 751 mmHg 63%
    15:00 +33°C° 0.1 mm 7 mps 750 mmHg 65%
    16:00 +32°C° 0.3 mm 7 mps 750 mmHg 69%
    17:00 +30°C° 0.3 mm 6 mps 751 mmHg 74%
    18:00 +29°C° 0.3 mm 6 mps 751 mmHg 79%
    19:00 +28°C° 0.7 mm 6 mps 752 mmHg 80%
    20:00 +28°C° 0.7 mm 5 mps 752 mmHg 82%
    21:00 +28°C° 0.7 mm 5 mps 752 mmHg 83%
    22:00 +27°C° 0.2 mm 5 mps 752 mmHg 84%
    23:00 +27°C° 0.2 mm 5 mps 752 mmHg 85%

    21 July, Saturday

    Time Temperature Precipitation Wind Pressure Humidity
    00:00 +27°C° 0.2 mm 5 mps 752 mmHg 85%
    01:00 +27°C° 0.2 mm 5 mps 751 mmHg 86%
    02:00 +27°C° 0.2 mm 5 mps 751 mmHg 86%
    03:00 +27°C° 0.2 mm 5 mps 751 mmHg 86%
    04:00 +27°C° 0.2 mm 5 mps 751 mmHg 86%
    05:00 +27°C° 0.2 mm 5 mps 751 mmHg 86%
    06:00 +27°C° 0.2 mm 5 mps 752 mmHg 86%
    07:00 +28°C° 0 mm 5 mps 752 mmHg 82%
    08:00 +29°C° 0 mm 6 mps 752 mmHg 78%
    09:00 +30°C° 0 mm 6 mps 753 mmHg 74%
    10:00 +32°C° 0.4 mm 6 mps 752 mmHg 72%
    11:00 +32°C° 0.4 mm 6 mps 752 mmHg 69%
    12:00 +33°C° 0.4 mm 6 mps 752 mmHg 67%
    13:00 +33°C° 1.7 mm 6 mps 751 mmHg 70%
    14:00 +32°C° 1.7 mm 6 mps 751 mmHg 73%
    15:00 +30°C° 1.7 mm 6 mps 750 mmHg 76%
    16:00 +29°C° 1.9 mm 7 mps 751 mmHg 81%
    17:00 +28°C° 1.9 mm 7 mps 751 mmHg 85%
    18:00 +27°C° 1.9 mm 7 mps 751 mmHg 89%
    19:00 +27°C° 1.2 mm 7 mps 752 mmHg 90%
    20:00 +27°C° 1.2 mm 6 mps 752 mmHg 90%
    21:00 +27°C° 1.2 mm 6 mps 753 mmHg 90%
    22:00 +27°C° 0.9 mm 6 mps 753 mmHg 91%
    23:00 +27°C° 0.9 mm 6 mps 752 mmHg 91%
    Show more